Time,TemperatureF,DewpointF,PressureIn,WindDirection,WindDirectionDegrees,WindSpeedMPH,WindSpeedGustMPH,Humidity,HourlyPrecipIn,Conditions,Clouds,dailyrainin,SoftwareType,DateUTC
2013-01-07 00:03:00,30.0,27.0,30.32,WNW,290,1.0,6.0,90,0.00,,,0.03,,2013-01-07 05:03:00,
2013-01-07 00:12:00,30.0,27.0,30.32,WNW,290,1.0,6.0,90,0.00,,,0.03,,2013-01-07 05:12:00,
2013-01-07 00:22:00,30.0,27.0,30.32,WNW,290,1.0,4.0,90,0.00,,,0.03,,2013-01-07 05:22:00,
2013-01-07 00:33:00,30.0,27.0,30.32,WNW,290,1.0,4.0,90,0.00,,,0.03,,2013-01-07 05:33:00,
2013-01-07 00:42:00,30.0,27.0,30.32,WNW,290,1.0,4.0,90,0.00,,,0.03,,2013-01-07 05:42:00,
2013-01-07 00:53:00,30.0,27.0,30.33,WNW,284,1.0,6.0,90,0.00,,,0.03,,2013-01-07 05:53:00,
2013-01-07 01:02:00,30.0,27.0,30.33,WNW,284,1.0,6.0,90,0.00,,,0.03,,2013-01-07 06:02:00,
2013-01-07 01:12:00,30.0,27.0,30.33,WNW,284,1.0,6.0,90,0.00,,,0.03,,2013-01-07 06:12:00,
2013-01-07 01:22:00,30.0,27.0,30.33,WNW,284,0.0,2.0,90,0.00,,,0.03,,2013-01-07 06:22:00,
2013-01-07 01:32:00,30.0,27.0,30.33,WNW,284,0.0,2.0,90,0.00,,,0.03,,2013-01-07 06:32:00,
2013-01-07 01:42:00,30.0,27.0,30.33,WNW,284,0.0,2.0,90,0.00,,,0.03,,2013-01-07 06:42:00,
2013-01-07 01:52:00,30.0,27.0,30.33,WNW,284,1.0,3.0,90,0.00,,,0.03,,2013-01-07 06:52:00,
2013-01-07 02:02:00,30.0,27.0,30.33,WNW,284,0.0,2.0,90,0.00,,,0.03,,2013-01-07 07:02:00,
2013-01-07 02:12:00,30.0,27.0,30.33,WNW,284,0.0,2.0,90,0.00,,,0.03,,2013-01-07 07:12:00,
2013-01-07 02:22:00,30.0,27.0,30.33,SW,227,0.0,2.0,90,0.00,,,0.03,,2013-01-07 07:22:00,
2013-01-07 02:33:00,30.0,27.0,30.33,SW,227,0.0,2.0,90,0.00,,,0.03,,2013-01-07 07:33:00,
2013-01-07 02:42:00,30.0,27.0,30.33,SW,227,0.0,2.0,90,0.00,,,0.03,,2013-01-07 07:42:00,
2013-01-07 02:53:00,30.0,27.0,30.34,WNW,291,0.0,3.0,90,0.00,,,0.03,,2013-01-07 07:53:00,
2013-01-07 03:03:00,30.0,27.0,30.35,WNW,291,0.0,3.0,90,0.00,,,0.03,,2013-01-07 08:03:00,
2013-01-07 03:12:00,30.0,27.0,30.35,WNW,291,0.0,3.0,90,0.00,,,0.03,,2013-01-07 08:12:00,
2013-01-07 03:22:00,30.0,27.0,30.36,West,279,1.0,5.0,90,0.00,,,0.03,,2013-01-07 08:22:00,
2013-01-07 03:33:00,30.0,27.0,30.35,SW,215,0.0,4.0,90,0.00,,,0.03,,2013-01-07 08:33:00,
2013-01-07 03:42:00,30.0,27.0,30.35,SW,215,0.0,4.0,90,0.00,,,0.03,,2013-01-07 08:42:00,
2013-01-07 03:53:00,30.0,27.0,30.35,West,261,0.0,3.0,90,0.00,,,0.03,,2013-01-07 08:53:00,
2013-01-07 04:02:00,30.0,27.0,30.36,WNW,292,1.0,3.0,90,0.00,,,0.03,,2013-01-07 09:02:00,
2013-01-07 04:12:00,30.0,27.0,30.36,WNW,292,1.0,3.0,90,0.00,,,0.03,,2013-01-07 09:12:00,
2013-01-07 04:23:00,29.0,26.0,30.37,WSW,238,1.0,5.0,90,0.00,,,0.03,,2013-01-07 09:23:00,
2013-01-07 04:32:00,29.0,26.0,30.37,SW,235,1.0,4.0,90,0.00,,,0.03,,2013-01-07 09:32:00,
2013-01-07 04:42:00,29.0,26.0,30.37,SW,235,1.0,4.0,90,0.00,,,0.03,,2013-01-07 09:42:00,
2013-01-07 04:53:00,29.0,26.0,30.37,West,267,0.0,3.0,90,0.00,,,0.03,,2013-01-07 09:53:00,
2013-01-07 05:02:00,29.0,27.0,30.38,WNW,284,1.0,3.0,91,0.00,,,0.03,,2013-01-07 10:02:00,
2013-01-07 05:12:00,29.0,27.0,30.38,WNW,284,1.0,3.0,91,0.00,,,0.03,,2013-01-07 10:12:00,
2013-01-07 05:22:00,29.0,27.0,30.39,WSW,250,1.0,8.0,91,0.00,,,0.03,,2013-01-07 10:22:00,
2013-01-07 05:32:00,29.0,27.0,30.38,West,275,1.0,5.0,91,0.00,,,0.03,,2013-01-07 10:32:00,
2013-01-07 05:42:00,29.0,27.0,30.38,West,275,1.0,5.0,91,0.00,,,0.03,,2013-01-07 10:42:00,
2013-01-07 05:52:00,29.0,27.0,30.38,SW,226,0.0,4.0,91,0.00,,,0.03,,2013-01-07 10:52:00,
2013-01-07 06:02:00,29.0,27.0,30.38,SW,219,0.0,3.0,91,0.00,,,0.03,,2013-01-07 11:02:00,
2013-01-07 06:12:00,29.0,27.0,30.38,SW,219,0.0,3.0,91,0.00,,,0.03,,2013-01-07 11:12:00,
2013-01-07 06:23:00,28.0,25.0,30.38,SW,229,1.0,4.0,90,0.00,,,0.03,,2013-01-07 11:23:00,
2013-01-07 06:33:00,28.0,25.0,30.39,SW,229,0.0,3.0,90,0.00,,,0.03,,2013-01-07 11:33:00,
2013-01-07 06:43:00,28.0,25.0,30.39,SW,229,0.0,3.0,90,0.00,,,0.03,,2013-01-07 11:43:00,
2013-01-07 06:53:00,27.0,24.0,30.40,West,280,0.0,3.0,90,0.00,,,0.03,,2013-01-07 11:53:00,
2013-01-07 07:03:00,26.0,23.0,30.40,WNW,290,0.0,3.0,90,0.00,,,0.03,,2013-01-07 12:03:00,
2013-01-07 07:12:00,25.0,23.0,30.41,SW,236,0.0,4.0,91,0.00,,,0.03,,2013-01-07 12:12:00,
2013-01-07 07:23:00,25.0,23.0,30.41,SW,236,0.0,4.0,91,0.00,,,0.03,,2013-01-07 12:23:00,
2013-01-07 07:33:00,24.0,22.0,30.42,SW,232,0.0,4.0,91,0.00,,,0.03,,2013-01-07 12:33:00,
2013-01-07 07:43:00,24.0,22.0,30.42,SW,232,0.0,4.0,91,0.00,,,0.03,,2013-01-07 12:43:00,
2013-01-07 07:53:00,24.0,22.0,30.42,SW,233,0.0,3.0,92,0.00,,,0.03,,2013-01-07 12:53:00,
2013-01-07 08:03:00,23.0,21.0,30.42,SW,236,0.0,3.0,92,0.00,,,0.03,,2013-01-07 13:03:00,
2013-01-07 08:12:00,23.0,21.0,30.42,SW,236,0.0,3.0,92,0.00,,,0.03,,2013-01-07 13:12:00,
2013-01-07 08:23:00,23.0,21.0,30.42,SSW,210,0.0,4.0,93,0.00,,,0.03,,2013-01-07 13:23:00,
2013-01-07 08:33:00,22.0,20.0,30.42,SW,221,0.0,3.0,93,0.00,,,0.03,,2013-01-07 13:33:00,
2013-01-07 08:43:00,22.0,20.0,30.42,SW,221,0.0,3.0,93,0.00,,,0.03,,2013-01-07 13:43:00,
2013-01-07 08:53:00,22.0,20.0,30.43,SW,219,1.0,3.0,93,0.00,,,0.03,,2013-01-07 13:53:00,
2013-01-07 09:03:00,23.0,21.0,30.43,SW,233,2.0,6.0,93,0.00,,,0.03,,2013-01-07 14:03:00,
2013-01-07 09:13:00,23.0,21.0,30.43,SW,233,2.0,6.0,93,0.00,,,0.03,,2013-01-07 14:13:00,
2013-01-07 09:23:00,23.0,21.0,30.43,SW,226,1.0,7.0,93,0.00,,,0.03,,2013-01-07 14:23:00,
2013-01-07 09:33:00,23.0,21.0,30.43,SSW,200,2.0,7.0,92,0.00,,,0.03,,2013-01-07 14:33:00,
2013-01-07 09:43:00,23.0,21.0,30.43,SSW,200,2.0,7.0,92,0.00,,,0.03,,2013-01-07 14:43:00,
2013-01-07 09:53:00,24.0,22.0,30.43,SW,233,2.0,5.0,92,0.00,,,0.03,,2013-01-07 14:53:00,
2013-01-07 10:03:00,25.0,23.0,30.44,West,275,1.0,5.0,91,0.00,,,0.03,,2013-01-07 15:03:00,
2013-01-07 10:12:00,25.0,23.0,30.44,West,275,1.0,5.0,91,0.00,,,0.03,,2013-01-07 15:12:00,
2013-01-07 10:23:00,25.0,22.0,30.43,SSW,204,2.0,7.0,90,0.00,,,0.03,,2013-01-07 15:23:00,
2013-01-07 10:33:00,25.0,22.0,30.44,SSW,201,2.0,6.0,88,0.00,,,0.03,,2013-01-07 15:33:00,
2013-01-07 10:43:00,25.0,22.0,30.44,SSW,201,2.0,6.0,88,0.00,,,0.03,,2013-01-07 15:43:00,
2013-01-07 10:53:00,26.0,23.0,30.44,SW,220,2.0,7.0,88,0.00,,,0.03,,2013-01-07 15:53:00,
2013-01-07 11:03:00,27.0,24.0,30.43,South,190,3.0,6.0,87,0.00,,,0.02,,2013-01-07 16:03:00,
2013-01-07 11:12:00,27.0,24.0,30.43,South,190,3.0,6.0,87,0.00,,,0.02,,2013-01-07 16:12:00,
2013-01-07 11:23:00,27.0,23.0,30.42,South,184,2.0,6.0,86,0.00,,,0.02,,2013-01-07 16:23:00,
2013-01-07 11:33:00,28.0,24.0,30.42,SSW,196,2.0,7.0,86,0.00,,,0.02,,2013-01-07 16:33:00,
2013-01-07 11:43:00,28.0,24.0,30.42,SSW,196,2.0,7.0,86,0.00,,,0.02,,2013-01-07 16:43:00,
2013-01-07 11:53:00,28.0,24.0,30.42,SSW,196,2.0,7.0,86,0.00,,,0.02,,2013-01-07 16:53:00,
2013-01-07 12:03:00,29.0,25.0,30.42,SSW,207,3.0,7.0,84,0.00,,,0.02,,2013-01-07 17:03:00,
2013-01-07 12:12:00,29.0,25.0,30.42,SSW,207,3.0,7.0,84,0.00,,,0.02,,2013-01-07 17:12:00,
2013-01-07 12:23:00,29.0,25.0,30.41,SSW,195,3.0,7.0,84,0.00,,,0.02,,2013-01-07 17:23:00,
2013-01-07 12:33:00,30.0,25.0,30.40,WSW,239,4.0,9.0,82,0.00,,,0.02,,2013-01-07 17:33:00,
2013-01-07 12:42:00,30.0,25.0,30.40,WSW,239,4.0,9.0,82,0.00,,,0.02,,2013-01-07 17:42:00,
2013-01-07 12:53:00,31.0,26.0,30.38,SW,221,4.0,8.0,82,0.00,,,0.02,,2013-01-07 17:53:00,
2013-01-07 13:03:00,31.0,26.0,30.37,WSW,239,4.0,10.0,81,0.00,,,0.02,,2013-01-07 18:03:00,
2013-01-07 13:13:00,31.0,26.0,30.37,WSW,239,4.0,10.0,81,0.00,,,0.02,,2013-01-07 18:13:00,
2013-01-07 13:23:00,32.0,27.0,30.36,SSW,200,4.0,13.0,80,0.00,,,0.01,,2013-01-07 18:23:00,
2013-01-07 13:33:00,32.0,27.0,30.35,SSW,195,3.0,9.0,80,0.00,,,0.01,,2013-01-07 18:33:00,
2013-01-07 13:43:00,32.0,27.0,30.35,SSW,195,3.0,9.0,80,0.00,,,0.01,,2013-01-07 18:43:00,
2013-01-07 13:52:00,33.0,27.0,30.35,South,188,4.0,9.0,79,0.01,,,0.02,,2013-01-07 18:52:00,
2013-01-07 14:03:00,33.0,27.0,30.34,SSW,194,4.0,11.0,79,0.01,,,0.02,,2013-01-07 19:03:00,
2013-01-07 14:12:00,33.0,27.0,30.34,SSW,194,4.0,11.0,79,0.01,,,0.02,,2013-01-07 19:12:00,
2013-01-07 14:23:00,34.0,28.0,30.33,SSW,205,2.0,8.0,79,0.01,,,0.02,,2013-01-07 19:23:00,
2013-01-07 14:33:00,34.0,28.0,30.33,SW,219,4.0,11.0,78,0.01,,,0.02,,2013-01-07 19:33:00,
2013-01-07 14:43:00,34.0,28.0,30.33,SW,219,4.0,11.0,78,0.01,,,0.02,,2013-01-07 19:43:00,
2013-01-07 14:53:00,35.0,29.0,30.32,SSW,208,3.0,8.0,78,0.00,,,0.02,,2013-01-07 19:53:00,
2013-01-07 15:03:00,35.0,28.0,30.32,SW,228,5.0,12.0,76,0.00,,,0.02,,2013-01-07 20:03:00,
2013-01-07 15:13:00,35.0,28.0,30.32,SW,228,5.0,12.0,76,0.00,,,0.02,,2013-01-07 20:13:00,
2013-01-07 15:23:00,35.0,28.0,30.32,SSW,202,4.0,12.0,76,0.00,,,0.01,,2013-01-07 20:23:00,
2013-01-07 15:33:00,35.0,28.0,30.31,SSW,194,7.0,11.0,76,0.00,,,0.01,,2013-01-07 20:33:00,
2013-01-07 15:43:00,35.0,28.0,30.31,SSW,194,7.0,11.0,76,0.00,,,0.01,,2013-01-07 20:43:00,
2013-01-07 15:52:00,35.0,29.0,30.30,SSW,203,4.0,10.0,77,0.00,,,0.01,,2013-01-07 20:52:00,
2013-01-07 16:03:00,35.0,29.0,30.29,SSW,195,5.0,12.0,77,0.00,,,0.01,,2013-01-07 21:03:00,
2013-01-07 16:12:00,35.0,29.0,30.29,SSW,195,5.0,12.0,77,0.00,,,0.01,,2013-01-07 21:12:00,
2013-01-07 16:23:00,34.0,28.0,30.29,South,188,5.0,11.0,77,0.00,,,0.01,,2013-01-07 21:23:00,
2013-01-07 16:33:00,34.0,27.0,30.29,SW,227,5.0,10.0,76,0.01,,,0.02,,2013-01-07 21:33:00,
2013-01-07 16:43:00,34.0,27.0,30.29,SW,227,5.0,10.0,76,0.01,,,0.02,,2013-01-07 21:43:00,
2013-01-07 16:53:00,34.0,27.0,30.28,SSW,194,3.0,11.0,76,0.01,,,0.02,,2013-01-07 21:53:00,
2013-01-07 17:03:00,34.0,28.0,30.28,WSW,254,4.0,7.0,77,0.01,,,0.02,,2013-01-07 22:03:00,
2013-01-07 17:12:00,34.0,28.0,30.28,WSW,254,4.0,7.0,77,0.01,,,0.02,,2013-01-07 22:12:00,
2013-01-07 17:23:00,33.0,27.0,30.28,South,169,2.0,6.0,78,0.01,,,0.02,,2013-01-07 22:23:00,
2013-01-07 17:33:00,32.0,27.0,30.28,SW,234,1.0,5.0,80,0.00,,,0.02,,2013-01-07 22:33:00,
2013-01-07 17:43:00,32.0,27.0,30.28,SW,234,1.0,5.0,80,0.00,,,0.02,,2013-01-07 22:43:00,
2013-01-07 17:53:00,31.0,26.0,30.29,SSW,211,2.0,6.0,81,0.00,,,0.02,,2013-01-07 22:53:00,
2013-01-07 18:02:00,30.0,25.0,30.29,WNW,291,0.0,3.0,82,0.00,,,0.02,,2013-01-07 23:02:00,
2013-01-07 18:12:00,30.0,25.0,30.29,WNW,291,0.0,3.0,82,0.00,,,0.02,,2013-01-07 23:12:00,
2013-01-07 18:23:00,30.0,25.0,30.28,South,180,0.0,4.0,83,0.00,,,0.02,,2013-01-07 23:23:00,
2013-01-07 18:33:00,30.0,26.0,30.28,SSW,205,1.0,5.0,84,0.00,,,0.02,,2013-01-07 23:33:00,
2013-01-07 18:43:00,30.0,26.0,30.28,SSW,205,1.0,5.0,84,0.00,,,0.02,,2013-01-07 23:43:00,
2013-01-07 18:53:00,30.0,25.0,30.27,SSE,151,1.0,7.0,83,0.00,,,0.02,,2013-01-07 23:53:00,
2013-01-07 19:03:00,30.0,25.0,30.27,South,182,2.0,8.0,82,0.00,,,0.02,,2013-01-08 00:03:00,
2013-01-07 19:12:00,30.0,25.0,30.27,South,182,2.0,8.0,82,0.00,,,0.02,,2013-01-08 00:12:00,
2013-01-07 19:22:00,29.0,25.0,30.27,SE,136,0.0,4.0,83,0.00,,,0.02,,2013-01-08 00:22:00,
2013-01-07 19:33:00,28.0,24.0,30.27,South,175,0.0,4.0,84,0.00,,,0.02,,2013-01-08 00:33:00,
2013-01-07 19:42:00,28.0,24.0,30.27,South,175,0.0,4.0,84,0.00,,,0.02,,2013-01-08 00:42:00,
2013-01-07 19:52:00,27.0,23.0,30.26,SSE,156,1.0,5.0,84,0.00,,,0.02,,2013-01-08 00:52:00,
2013-01-07 20:03:00,27.0,23.0,30.27,SSE,163,0.0,2.0,86,0.00,,,0.02,,2013-01-08 01:03:00,
2013-01-07 20:12:00,27.0,23.0,30.27,SSE,163,0.0,2.0,86,0.00,,,0.02,,2013-01-08 01:12:00,
2013-01-07 20:22:00,27.0,24.0,30.26,SSW,199,0.0,2.0,87,0.00,,,0.02,,2013-01-08 01:22:00,
2013-01-07 20:33:00,27.0,24.0,30.24,SSW,196,0.0,4.0,87,0.00,,,0.02,,2013-01-08 01:33:00,
2013-01-07 20:42:00,27.0,24.0,30.24,SSW,196,0.0,4.0,87,0.00,,,0.02,,2013-01-08 01:42:00,
2013-01-07 20:52:00,26.0,23.0,30.23,SSW,213,1.0,3.0,87,0.00,,,0.02,,2013-01-08 01:52:00,
2013-01-07 21:02:00,26.0,23.0,30.23,SSW,213,1.0,3.0,87,0.00,,,0.02,,2013-01-08 02:02:00,
2013-01-07 21:12:00,26.0,23.0,30.23,SSW,213,1.0,3.0,87,0.00,,,0.02,,2013-01-08 02:12:00,
2013-01-07 21:22:00,27.0,24.0,30.23,SSW,196,2.0,5.0,87,0.00,,,0.02,,2013-01-08 02:22:00,
2013-01-07 21:33:00,27.0,24.0,30.23,SSW,205,1.0,5.0,87,0.00,,,0.02,,2013-01-08 02:33:00,
2013-01-07 21:42:00,27.0,24.0,30.23,SSW,205,1.0,5.0,87,0.00,,,0.02,,2013-01-08 02:42:00,
2013-01-07 21:53:00,26.0,23.0,30.24,WSW,244,0.0,4.0,87,0.00,,,0.02,,2013-01-08 02:53:00,
2013-01-07 22:03:00,26.0,23.0,30.24,WSW,244,0.0,2.0,88,0.00,,,0.02,,2013-01-08 03:03:00,
2013-01-07 22:12:00,26.0,23.0,30.24,WSW,244,0.0,2.0,88,0.00,,,0.02,,2013-01-08 03:12:00,
2013-01-07 22:22:00,26.0,23.0,30.23,SSW,198,1.0,4.0,88,0.00,,,0.02,,2013-01-08 03:22:00,
2013-01-07 22:33:00,26.0,23.0,30.22,SSW,202,1.0,6.0,88,0.00,,,0.02,,2013-01-08 03:33:00,
2013-01-07 22:43:00,26.0,23.0,30.22,SSW,202,1.0,6.0,88,0.00,,,0.02,,2013-01-08 03:43:00,
2013-01-07 22:53:00,26.0,23.0,30.22,SSW,200,0.0,5.0,87,0.00,,,0.02,,2013-01-08 03:53:00,
2013-01-07 23:02:00,26.0,23.0,30.22,SW,219,0.0,4.0,87,0.00,,,0.02,,2013-01-08 04:02:00,
2013-01-07 23:12:00,26.0,23.0,30.22,SW,219,0.0,4.0,87,0.00,,,0.02,,2013-01-08 04:12:00,
2013-01-07 23:22:00,25.0,22.0,30.22,West,264,0.0,4.0,88,0.00,,,0.02,,2013-01-08 04:22:00,
2013-01-07 23:32:00,25.0,22.0,30.22,West,264,0.0,1.0,88,0.00,,,0.02,,2013-01-08 04:32:00,
2013-01-07 23:43:00,25.0,22.0,30.22,West,264,0.0,1.0,88,0.00,,,0.02,,2013-01-08 04:43:00,
2013-01-07 23:52:00,24.0,21.0,30.22,WNW,296,0.0,1.0,88,0.00,,,0.02,,2013-01-08 04:52:00,